Tracking 28790 objects as of 19-Apr-2024
HD Live streaming from Space Station
objects crossing your sky now

CZ-3B DEB

Track CZ-3B DEB now!


NORAD ID: 52965
Int'l Code: 2018-079GQ
Perigee: 998.2 km
Apogee: 42,813.9 km
Inclination: 24.3 °
Period: 788.7 minutes
Semi major axis: 28277 km
RCS: Unknown
Launch date: October 17, 2018
Source: People's Republic of China (PRC)
Launch site: AIR FORCE EASTERN TEST RANGE (AFETR)

Note: This is SATELLITE DEBRIS
Your satellite tracking list
Your tracking list is empty




NASA's NSSDC Master Catalog

Two Line Element Set (TLE):
1 52965U 10042AJ  24106.12594767 -.00000014  00000-0  32716-1 0  9994
2 52965  24.2586  65.8777 7393919 151.9560 284.5135  1.82579434 13795
Source of the keplerian elements: AFSPC